Vorticity
6 7 7 4 4 5 5 2 -0 2 6 6 6 7 8 9 7 4 5 7 8 7 7 8 8 7 7 7 7 7 7 7 6 6 5 6 7 9 10 11 11 11 11 11 11 10 9 10 11 12 11 9 8 8 9 10 10 11 11 11 10 9 8 8 8 9 9 9 11 9 8 8 8 8 9 10 11 9 6 5 4 5 10 14 13
6 7 6 3 4 6 6 2 -0 3 6 6 6 7 8 9 7 5 6 7 7 7 8 9 8 7 7 7 7 7 7 7 6 6 6 7 7 8 10 11 12 11 11 11 11 10 10 11 12 11 10 9 8 8 9 10 10 10 11 11 10 9 9 8 8 9 10 10 11 10 9 9 8 8 8 8 11 12 8 7 6 4 5 11 14
7 7 4 3 5 7 6 2 -0 3 7 6 6 7 8 8 7 6 7 7 7 7 8 8 8 8 7 7 7 8 7 6 6 6 6 7 7 8 10 12 12 12 12 12 12 11 12 12 11 10 10 9 8 8 9 10 10 10 11 11 10 10 9 8 8 8 10 10 11 11 10 11 9 8 8 7 9 12 11 8 9 7 4 7 12
7 5 3 4 6 7 5 2 1 4 6 6 7 8 8 8 7 7 7 6 6 8 8 8 8 8 7 7 8 8 7 6 6 6 6 7 7 9 11 12 12 13 13 13 12 11 11 11 10 9 8 8 7 8 9 10 10 10 10 10 10 10 9 8 8 8 9 10 11 11 11 12 12 9 8 8 7 10 11 9 9 10 8 7 10
5 2 4 6 7 7 5 2 2 5 6 6 7 8 9 8 7 7 7 6 7 8 9 9 8 8 8 8 8 8 7 6 6 6 7 7 7 9 11 12 13 12 12 12 11 10 10 10 9 8 8 7 7 8 9 9 10 10 10 10 10 10 9 9 8 7 9 10 10 11 10 11 13 11 10 9 8 8 10 9 8 10 12 11 11
2 2 6 7 6 7 5 2 4 6 5 7 8 9 8 8 7 7 6 6 7 9 9 9 8 7 8 8 8 8 7 6 5 6 7 7 7 9 11 12 13 12 12 11 10 9 10 9 9 7 7 7 7 9 9 9 9 9 10 10 10 11 9 8 8 7 8 9 10 10 10 10 11 12 11 11 10 9 10 9 7 7 10 12 15
2 4 7 7 6 6 4 3 6 6 5 7 8 9 9 7 7 7 6 6 8 9 9 8 7 8 8 8 8 8 7 6 6 7 7 7 7 9 10 12 12 11 11 11 9 9 10 10 9 7 6 7 7 8 9 9 9 9 9 10 10 10 10 8 8 8 8 9 9 10 10 10 11 11 11 11 11 10 10 10 7 6 6 8 13
3 5 7 7 7 6 3 5 8 5 5 8 9 9 9 7 6 7 6 6 8 9 9 8 7 8 9 9 8 8 7 6 6 7 7 7 7 9 11 12 12 12 12 11 9 10 11 10 9 7 6 7 7 8 8 8 9 9 9 10 10 10 10 9 8 7 8 8 9 10 10 9 10 11 11 11 11 10 10 11 10 8 7 7 8
3 6 9 8 6 5 3 7 8 4 6 10 9 9 8 5 7 7 6 7 9 9 8 8 8 9 8 9 9 8 7 6 7 7 7 7 8 9 11 12 12 13 12 11 10 10 11 10 9 7 6 7 7 8 8 8 8 9 9 9 10 10 10 9 8 7 8 8 8 9 10 9 8 10 11 10 10 10 10 11 11 9 8 8 7
3 9 11 8 6 5 4 7 7 4 7 10 8 8 7 5 7 7 6 7 9 9 8 8 9 8 8 9 8 8 8 7 7 7 7 7 7 9 10 11 13 13 12 11 10 10 9 9 9 8 6 6 7 7 8 8 8 8 9 9 9 10 10 9 8 7 8 8 8 8 9 10 8 9 11 11 10 10 10 10 11 10 8 8 8
9 14 10 6 6 4 5 9 7 4 8 10 7 8 7 6 7 7 7 8 9 9 9 8 9 8 9 10 9 8 8 7 7 7 6 6 7 8 10 12 14 13 11 11 11 9 7 7 7 8 7 5 6 7 7 8 8 8 8 9 9 10 9 9 8 7 8 8 9 8 9 10 9 8 9 10 9 9 9 9 10 9 9 8 7
16 13 5 5 6 4 8 11 6 5 10 9 7 9 7 5 7 8 7 9 10 9 8 8 8 8 9 10 9 9 8 7 7 7 6 7 8 9 11 13 13 12 10 10 10 10 8 6 4 6 7 6 6 6 7 7 8 8 8 9 9 9 8 8 7 6 7 9 9 9 9 10 10 9 9 10 10 9 9 8 8 7 8 9 7
14 5 2 5 4 4 9 9 4 6 10 8 8 9 6 5 8 8 8 10 9 8 8 9 9 8 10 11 10 8 7 7 7 7 7 7 8 8 11 12 12 11 9 8 9 10 9 8 5 5 7 8 6 6 7 7 7 8 9 9 9 8 7 7 7 6 6 8 10 9 9 9 10 9 9 9 9 9 9 8 8 8 7 8 8
7 3 5 6 4 6 10 7 4 8 9 7 8 8 5 6 8 8 9 10 8 8 9 9 9 9 10 11 10 7 7 7 7 7 7 7 8 9 10 10 10 9 7 6 8 10 10 9 7 7 8 9 8 8 7 6 7 9 9 9 8 7 7 6 6 7 7 7 9 10 9 9 9 9 8 8 8 9 10 9 9 9 8 7 9
3 4 4 5 6 8 8 5 6 10 9 7 8 7 6 6 8 10 10 9 7 8 9 8 9 10 11 11 10 7 6 8 7 7 7 8 8 9 9 9 8 7 6 5 6 9 9 9 10 9 9 10 10 10 8 6 7 9 10 10 9 7 6 6 6 6 7 8 9 10 10 9 9 8 8 9 9 9 9 9 9 9 10 9 9
4 3 5 8 9 8 5 5 9 12 10 8 8 6 5 7 10 11 9 7 7 8 8 9 10 10 11 11 9 7 7 8 7 7 8 8 8 8 8 8 7 6 5 5 6 7 9 10 11 10 10 12 12 11 10 7 6 8 10 10 10 8 6 6 7 6 7 8 9 9 10 9 8 9 8 8 8 9 8 8 9 9 10 12 11
0 2 8 12 9 5 5 8 12 12 8 7 6 5 5 9 11 9 6 6 7 8 8 10 11 11 11 10 9 8 7 8 8 7 8 8 8 8 8 7 6 6 4 4 6 7 8 10 11 11 11 12 13 11 11 9 6 6 10 11 10 9 7 6 6 7 7 8 9 9 8 9 8 8 8 8 7 8 8 8 10 11 11 13 14
3 10 13 9 5 6 8 11 12 9 6 7 6 4 6 10 10 7 5 6 7 7 9 11 11 11 11 10 9 8 7 7 8 8 8 9 8 8 8 6 5 5 5 5 7 8 9 9 10 11 11 12 13 12 10 9 7 6 8 11 11 10 8 6 6 8 9 8 8 8 7 8 8 7 8 8 6 7 8 9 11 14 15 17 18
11 13 9 6 8 9 10 11 9 6 7 7 5 4 7 11 9 5 5 7 7 8 10 11 11 11 12 11 9 9 8 8 8 8 8 9 8 8 7 7 6 5 5 7 8 8 9 10 10 11 12 12 14 13 11 9 8 7 8 10 12 10 8 7 7 9 11 9 8 8 7 6 8 8 7 7 8 8 10 13 16 19 21 22 23
15 12 8 10 11 8 9 11 8 6 7 5 4 6 9 11 9 6 6 7 8 9 10 10 11 12 12 11 10 9 9 8 7 8 8 8 8 8 8 7 6 5 5 8 9 9 10 10 9 10 11 13 14 13 11 9 8 8 8 10 11 10 7 7 8 9 10 9 7 7 7 7 7 8 8 8 11 13 15 19 22 23 24 24 25
13 13 13 11 6 4 8 10 7 6 6 4 5 7 10 11 10 7 7 8 8 10 10 10 11 12 11 11 11 10 9 7 7 8 8 8 7 7 7 7 6 6 6 8 9 10 10 9 8 9 11 13 14 12 12 10 8 7 9 10 10 8 6 7 9 9 9 8 7 7 7 7 7 7 10 12 15 19 22 23 23 21 20 20 21
11 13 12 7 4 6 10 10 8 7 6 5 6 8 11 12 10 6 7 9 9 10 9 9 11 12 11 12 12 11 8 6 7 8 8 7 7 7 7 7 6 6 7 8 9 10 10 8 7 9 11 12 12 12 11 10 9 8 9 10 9 7 6 7 8 10 8 6 7 7 6 6 7 8 13 17 21 25 24 20 18 16 15 16 15
12 10 6 4 5 8 11 10 9 7 5 5 7 9 12 11 8 7 9 10 10 9 8 8 10 11 12 14 13 10 8 6 7 9 9 7 7 8 7 6 6 6 7 8 9 9 9 7 7 9 11 11 12 12 11 9 9 8 8 10 8 6 7 9 8 8 7 6 7 7 5 6 8 11 16 22 26 24 18 15 15 14 14 13 11
8 6 6 8 8 10 12 11 8 5 5 6 8 10 11 9 8 9 10 10 9 8 8 8 10 11 13 15 14 9 7 7 8 9 9 8 7 6 7 6 7 8 8 8 9 9 7 6 7 8 10 11 12 12 11 9 8 8 8 9 7 6 8 9 8 6 6 6 7 6 5 6 9 14 21 26 24 18 13 13 14 14 14 11 8
8 8 10 10 10 11 11 8 6 5 5 7 9 10 10 9 9 10 9 9 9 8 8 9 10 12 14 14 13 9 6 8 9 8 8 8 6 6 7 7 7 9 9 8 8 8 7 6 7 9 9 11 12 12 11 9 7 8 8 7 6 7 8 8 7 6 6 7 7 5 5 7 12 18 25 26 20 13 10 13 14 14 14 12 8
13 11 10 9 11 12 9 5 5 6 6 8 10 10 10 10 10 10 9 9 9 8 8 9 10 13 15 14 13 10 8 9 9 8 9 8 6 7 7 7 8 9 9 9 7 7 8 6 8 9 8 10 12 12 10 9 7 7 8 7 6 8 9 7 6 6 7 7 6 4 5 9 15 23 28 24 15 11 10 11 13 14 15 13 10
12 10 11 12 11 9 5 4 6 7 8 10 10 10 11 11 11 10 9 9 8 7 8 10 12 13 14 13 12 10 9 10 9 8 9 7 6 7 7 7 9 9 8 9 8 7 8 7 7 8 8 9 12 12 10 9 8 8 7 6 7 8 8 7 6 6 7 7 5 4 6 12 19 26 28 21 12 10 11 10 12 14 15 14 12
10 11 12 12 8 5 4 7 9 8 9 10 9 10 12 11 10 10 9 8 7 7 8 10 13 13 13 13 12 9 10 12 9 8 8 7 6 7 6 7 9 8 8 9 8 8 7 7 7 7 8 9 11 12 11 9 8 8 5 4 7 8 7 6 6 6 7 6 5 5 7 14 23 28 26 18 11 10 10 10 11 13 13 14 14
11 12 11 8 5 6 7 8 9 8 8 8 8 11 12 10 9 9 9 7 6 7 9 11 12 13 13 13 12 10 11 12 9 7 8 7 7 7 7 8 8 9 9 9 7 7 7 7 7 6 7 9 11 12 11 9 8 8 6 5 8 8 6 6 6 7 7 5 4 6 9 16 26 29 24 16 10 10 10 9 10 11 11 12 14
9 9 8 7 6 7 8 9 8 6 5 6 9 11 9 8 9 9 8 7 6 7 10 12 12 12 13 13 11 11 12 12 9 8 8 7 7 7 7 8 7 8 9 8 6 7 7 7 7 6 6 9 12 12 11 8 8 9 7 7 8 7 5 7 7 6 7 5 4 6 10 19 28 29 22 14 9 9 10 9 9 9 9 11 12
3 5 5 6 6 7 9 10 7 4 4 6 9 9 7 7 10 10 8 6 7 8 11 13 12 11 12 13 12 12 13 10 8 8 8 7 7 7 7 7 7 7 8 7 6 7 8 7 7 6 7 10 12 12 10 7 7 9 8 8 8 6 5 7 7 7 6 5 5 7 12 22 30 28 20 13 9 8 9 9 9 8 8 10 11
4 6 6 7 8 10 12 10 4 2 4 6 9 9 7 8 10 10 8 6 7 9 11 12 13 11 11 13 14 14 13 9 8 9 9 7 8 8 7 7 7 7 7 8 7 7 8 7 7 6 8 11 13 12 9 6 7 9 9 8 6 5 6 7 7 7 6 5 6 9 14 24 30 26 18 11 8 8 9 9 9 8 7 9 10
4 5 7 9 12 14 11 5 2 3 4 6 10 9 7 8 10 9 8 7 7 10 11 11 12 12 11 13 15 14 12 10 8 9 9 8 8 8 7 6 7 7 7 8 8 8 7 7 7 7 8 12 13 12 8 6 8 9 8 7 6 5 7 8 7 7 6 5 6 10 17 26 30 24 16 10 7 8 9 9 9 8 7 8 10
5 6 9 13 15 13 7 2 3 5 4 7 12 10 6 9 10 8 7 7 7 9 11 11 11 12 12 14 15 14 12 9 8 8 8 8 8 8 8 7 6 6 7 8 8 8 7 7 7 7 9 12 13 10 7 6 9 9 7 6 6 6 7 8 7 7 6 5 8 12 19 27 28 21 14 10 7 7 9 9 9 9 7 8 10
8 10 13 15 12 7 4 4 4 3 4 9 13 9 7 10 10 7 7 7 7 9 11 11 11 12 14 15 16 15 11 8 8 9 8 8 8 8 8 7 5 6 8 8 8 7 6 7 7 7 10 13 12 9 7 7 9 8 6 5 6 6 7 8 7 6 6 6 9 15 22 27 26 19 12 9 7 7 9 9 9 8 8 8 9
13 15 14 10 6 4 5 7 5 2 6 13 11 8 8 10 9 7 6 6 8 10 10 11 12 12 14 16 18 15 10 8 9 9 8 8 9 8 7 6 6 7 8 8 8 7 6 7 8 8 11 14 11 8 7 8 9 8 5 5 6 6 8 8 7 6 6 7 11 18 24 26 23 16 11 8 7 8 9 9 8 8 8 8 8
16 16 9 4 5 6 6 6 4 3 9 14 11 8 10 10 7 6 6 6 9 10 10 12 12 12 14 19 19 14 9 8 9 8 7 7 8 8 7 7 7 8 8 7 7 7 6 7 7 9 12 13 10 7 8 9 8 7 5 5 6 6 7 8 6 5 6 8 13 20 24 25 20 14 9 7 7 8 9 8 8 8 7 8 9
17 12 8 5 5 5 4 4 3 5 12 14 10 8 10 9 6 6 6 7 9 10 11 13 13 13 17 20 17 11 8 9 8 7 7 7 8 7 7 7 7 8 8 8 7 6 6 7 8 11 13 12 9 7 9 9 7 6 4 5 6 6 7 7 6 5 7 10 16 22 24 23 18 12 8 8 8 8 9 8 8 8 7 8 11
15 7 7 7 3 3 5 4 4 8 13 13 9 8 10 9 6 5 6 8 9 10 12 14 14 15 19 19 13 9 8 9 8 7 7 7 8 7 6 6 7 8 9 8 7 6 7 8 9 12 13 11 8 8 9 8 6 5 4 5 5 6 6 6 5 6 8 12 19 23 23 20 15 10 8 8 8 8 9 8 7 8 8 10 15
14 8 8 8 6 7 8 5 4 10 14 11 9 9 10 8 5 5 7 8 9 11 13 14 15 19 21 17 13 10 9 8 7 7 7 7 7 7 6 6 8 10 9 8 7 7 8 9 10 13 12 9 7 8 8 7 6 4 4 5 5 5 6 5 4 6 9 15 21 23 21 17 13 9 8 9 8 9 9 7 7 9 11 15 21
19 12 10 10 10 10 7 3 5 12 13 9 8 10 9 7 5 6 7 9 10 13 15 14 17 21 20 16 13 11 9 8 7 7 7 7 6 6 6 7 9 10 9 7 7 8 8 9 11 13 11 7 7 9 8 6 6 5 4 5 5 5 5 4 4 6 12 18 23 22 18 14 11 8 9 9 9 8 7 6 8 12 16 21 27
16 9 9 11 10 6 3 3 8 13 11 8 9 11 8 6 5 6 7 10 13 15 15 15 18 20 17 14 13 11 8 7 7 7 7 7 6 6 6 7 10 10 8 7 8 8 9 11 12 12 9 7 7 8 7 6 6 5 4 5 6 4 4 4 4 7 15 21 23 20 15 11 9 9 9 9 8 7 7 8 12 17 22 27 31
11 9 10 10 6 2 2 6 11 12 9 8 11 10 7 5 5 6 8 12 15 15 14 15 18 18 14 12 13 11 8 8 8 7 7 7 6 6 7 8 10 9 7 7 9 9 10 12 13 10 8 7 8 8 7 6 6 5 5 6 6 4 5 4 4 9 18 23 23 18 13 10 9 9 9 8 6 6 9 13 18 24 28 31 32
12 11 8 5 3 2 4 8 11 11 9 9 10 9 6 5 5 5 9 15 17 15 14 16 17 15 14 13 12 10 9 9 8 7 7 7 6 7 8 9 10 9 7 8 9 9 11 13 12 9 7 7 7 7 6 6 6 5 6 7 6 5 5 4 5 12 20 23 21 16 11 10 10 9 7 7 7 9 15 20 25 30 32 32 34
11 8 5 4 4 3 5 10 12 11 9 9 9 9 7 6 4 6 13 18 17 14 14 16 15 14 14 14 11 9 9 10 8 7 8 8 7 8 10 10 9 8 8 8 9 10 12 13 11 8 7 7 7 7 6 6 6 6 7 7 7 6 5 4 8 16 22 22 18 13 10 10 10 7 6 7 10 16 23 27 30 34 35 34 35
9 6 4 5 6 4 7 12 12 9 8 9 10 11 8 4 4 10 17 18 15 13 15 15 14 14 13 12 10 10 9 9 8 8 8 8 9 10 10 10 9 8 8 9 10 11 13 12 9 7 7 7 7 6 6 6 6 6 7 8 7 6 5 6 11 19 23 20 15 11 10 9 8 6 8 13 18 25 30 32 33 36 36 36 37
8 5 4 6 6 6 9 11 9 7 9 11 12 11 7 3 7 16 19 16 12 13 15 14 13 13 11 10 10 10 9 9 9 9 8 9 10 11 10 10 9 9 9 9 10 12 13 11 7 7 7 7 7 7 6 6 6 7 8 8 7 6 5 8 14 21 22 17 12 10 9 7 7 9 14 21 27 31 33 35 36 37 37 37 38
5 5 6 7 6 6 9 10 8 9 11 13 12 9 4 4 12 19 17 13 12 13 14 13 12 11 9 9 10 10 10 10 10 9 9 10 11 11 10 10 10 9 9 10 11 12 12 9 6 7 7 7 7 7 6 6 7 8 8 8 7 5 5 11 19 22 19 13 10 9 7 7 11 17 23 29 33 35 36 38 37 37 38 39 37
7 9 7 6 6 8 10 11 10 11 12 12 11 6 3 7 17 19 14 11 13 14 13 12 11 10 9 10 10 10 11 11 10 9 10 11 11 10 10 10 10 9 9 10 12 12 10 7 6 7 7 7 7 7 6 6 8 9 9 9 6 4 8 16 21 20 15 11 8 7 8 12 19 24 30 35 37 38 38 39 37 36 38 38 35
13 11 5 4 8 10 11 12 11 11 12 11 8 4 5 12 18 16 11 11 13 13 11 10 11 10 10 10 10 10 11 11 10 10 11 10 10 11 11 10 10 9 9 11 12 11 9 6 6 7 7 7 7 6 5 6 9 10 10 8 5 5 12 20 21 16 12 9 7 9 14 20 25 30 36 40 40 38 37 36 35 36 38 37 34
13 6 2 6 10 12 12 12 11 10 11 10 6 4 9 16 17 13 11 13 13 11 10 10 11 10 10 10 10 12 12 10 10 11 11 10 11 11 11 10 10 9 10 12 12 10 7 6 6 6 7 7 6 6 6 7 10 11 10 6 5 9 17 21 19 13 9 7 9 15 21 26 31 37 41 41 38 36 34 33 35 37 37 35 34
Height
5685 5684 5683 5681 5679 5676 5674 5672 5669 5667 5664 5660 5657 5654 5652 5649 5646 5642 5639 5635 5632 5628 5624 5620 5617 5613 5609 5604 5600 5596 5591 5586 5582 5577 5572 5567 5561 5556 5550 5544 5538 5532 5526 5520 5515 5508 5503 5497 5491 5486 5480 5474 5469 5464 5458 5453 5447 5441 5435 5429 5424 5419 5414 5409 5404 5397 5389 5382 5378 5372 5367 5361 5355 5350 5345 5338 5332 5326 5320 5315 5310 5305 5301 5298 5294
5681 5680 5679 5677 5674 5671 5669 5667 5665 5662 5659 5656 5653 5650 5647 5644 5641 5638 5635 5631 5627 5624 5620 5616 5612 5608 5604 5600 5595 5591 5586 5582 5577 5572 5567 5562 5557 5551 5545 5539 5533 5528 5522 5516 5510 5504 5499 5493 5487 5482 5477 5471 5466 5461 5455 5450 5444 5438 5432 5426 5420 5415 5411 5406 5400 5395 5389 5381 5376 5370 5364 5359 5353 5348 5342 5336 5331 5325 5319 5313 5307 5302 5297 5293 5290
5677 5676 5675 5672 5670 5667 5665 5663 5660 5658 5655 5652 5649 5646 5643 5640 5637 5634 5630 5627 5623 5619 5615 5612 5608 5604 5600 5595 5591 5586 5582 5577 5573 5568 5563 5558 5552 5546 5541 5535 5529 5523 5517 5512 5506 5500 5494 5489 5483 5478 5472 5468 5462 5457 5452 5447 5441 5435 5429 5423 5417 5411 5406 5402 5396 5392 5387 5380 5374 5369 5364 5357 5351 5346 5340 5334 5328 5323 5317 5311 5305 5299 5293 5289 5286
5672 5671 5670 5668 5665 5663 5661 5658 5656 5653 5650 5647 5645 5642 5639 5636 5633 5629 5626 5622 5619 5615 5611 5607 5604 5600 5595 5591 5586 5582 5578 5573 5569 5564 5559 5553 5547 5542 5536 5530 5524 5519 5513 5508 5502 5496 5490 5484 5479 5474 5468 5463 5459 5453 5448 5443 5438 5433 5426 5420 5414 5408 5403 5398 5393 5388 5384 5378 5372 5366 5361 5356 5350 5344 5339 5333 5327 5321 5315 5309 5303 5297 5291 5286 5282
5668 5667 5665 5663 5661 5658 5656 5653 5651 5648 5646 5643 5640 5638 5634 5631 5628 5625 5621 5618 5614 5611 5607 5603 5599 5595 5591 5586 5582 5578 5573 5569 5564 5559 5554 5549 5543 5537 5532 5526 5520 5515 5510 5504 5498 5492 5486 5481 5476 5471 5465 5460 5455 5450 5444 5439 5435 5429 5424 5418 5412 5406 5401 5396 5391 5385 5379 5375 5370 5364 5358 5353 5348 5342 5336 5332 5327 5321 5314 5307 5301 5296 5290 5284 5279
5663 5662 5660 5658 5656 5654 5651 5649 5646 5644 5641 5639 5636 5633 5630 5627 5624 5621 5617 5613 5610 5606 5603 5599 5595 5591 5587 5582 5578 5574 5569 5565 5560 5555 5550 5545 5539 5534 5528 5523 5517 5512 5507 5501 5495 5489 5484 5479 5474 5469 5463 5458 5453 5447 5441 5436 5431 5426 5421 5415 5409 5404 5398 5393 5388 5383 5377 5371 5366 5362 5356 5351 5346 5340 5334 5329 5324 5320 5315 5308 5300 5293 5288 5283 5279
5658 5657 5655 5653 5652 5649 5647 5644 5642 5639 5637 5634 5632 5629 5626 5622 5619 5616 5613 5609 5606 5602 5598 5594 5590 5586 5582 5578 5574 5569 5565 5560 5555 5551 5546 5540 5535 5530 5525 5520 5515 5510 5504 5498 5492 5487 5481 5476 5471 5466 5461 5456 5450 5445 5440 5434 5428 5423 5418 5413 5407 5402 5396 5391 5386 5381 5375 5369 5363 5358 5353 5348 5343 5338 5332 5327 5321 5316 5312 5308 5302 5293 5286 5280 5276
5653 5652 5650 5649 5647 5644 5642 5639 5637 5635 5632 5630 5627 5624 5621 5618 5615 5612 5608 5605 5601 5597 5594 5590 5586 5582 5578 5574 5570 5565 5561 5556 5551 5546 5541 5536 5531 5526 5521 5516 5511 5506 5500 5495 5489 5484 5479 5474 5469 5463 5458 5453 5447 5442 5437 5432 5426 5420 5415 5411 5405 5400 5394 5389 5384 5379 5373 5367 5361 5355 5350 5345 5340 5335 5330 5324 5319 5313 5308 5304 5299 5294 5287 5278 5272
5648 5647 5645 5643 5642 5640 5637 5635 5632 5630 5628 5625 5623 5619 5616 5613 5610 5607 5604 5600 5597 5593 5589 5585 5581 5577 5574 5569 5565 5561 5556 5551 5547 5542 5537 5533 5528 5522 5517 5511 5506 5500 5495 5490 5486 5481 5477 5471 5466 5460 5454 5449 5444 5438 5433 5428 5423 5418 5413 5408 5403 5398 5392 5386 5380 5376 5370 5364 5358 5353 5347 5342 5336 5332 5327 5321 5316 5310 5305 5300 5294 5289 5284 5278 5270
5643 5641 5640 5638 5637 5634 5632 5630 5628 5625 5623 5621 5618 5615 5612 5609 5606 5603 5599 5596 5592 5589 5585 5581 5577 5573 5569 5565 5561 5556 5552 5547 5543 5538 5534 5529 5524 5519 5513 5507 5502 5496 5490 5485 5481 5477 5473 5468 5463 5457 5451 5445 5439 5433 5428 5423 5418 5413 5408 5404 5399 5395 5390 5384 5377 5372 5367 5361 5355 5350 5345 5339 5333 5328 5324 5318 5312 5306 5301 5296 5291 5285 5280 5276 5269
5637 5636 5634 5633 5632 5629 5627 5625 5623 5621 5618 5616 5613 5610 5607 5604 5601 5598 5595 5591 5588 5584 5580 5576 5572 5569 5565 5561 5556 5552 5547 5543 5538 5535 5530 5526 5521 5515 5510 5504 5498 5493 5487 5482 5477 5472 5468 5464 5459 5454 5448 5442 5435 5429 5423 5418 5414 5408 5402 5398 5393 5389 5385 5380 5374 5369 5364 5358 5352 5346 5341 5336 5330 5324 5320 5315 5309 5303 5297 5291 5286 5281 5276 5271 5266
5632 5630 5630 5628 5626 5624 5622 5620 5618 5616 5613 5611 5608 5605 5603 5600 5597 5594 5590 5587 5583 5580 5576 5572 5568 5564 5560 5556 5552 5548 5543 5539 5534 5530 5526 5522 5517 5512 5506 5501 5495 5490 5485 5480 5475 5470 5465 5459 5455 5450 5445 5439 5433 5426 5420 5414 5409 5404 5398 5393 5387 5383 5378 5374 5369 5364 5359 5355 5349 5343 5337 5333 5327 5321 5316 5312 5306 5300 5294 5288 5282 5277 5271 5265 5260
5626 5625 5625 5623 5621 5619 5617 5616 5613 5611 5609 5606 5603 5601 5598 5596 5593 5589 5586 5583 5579 5575 5571 5567 5564 5560 5556 5552 5548 5543 5539 5535 5531 5526 5522 5517 5513 5508 5503 5498 5493 5488 5483 5478 5474 5469 5463 5457 5451 5447 5442 5437 5431 5425 5419 5412 5406 5400 5394 5389 5383 5378 5373 5368 5363 5358 5353 5349 5345 5339 5333 5328 5323 5317 5311 5306 5302 5297 5292 5286 5280 5274 5267 5260 5254
5621 5620 5619 5617 5615 5614 5612 5611 5609 5606 5604 5601 5599 5596 5594 5591 5588 5585 5581 5578 5575 5571 5567 5563 5559 5555 5552 5548 5543 5539 5535 5531 5527 5523 5518 5513 5509 5504 5499 5495 5490 5486 5481 5477 5472 5467 5462 5456 5450 5444 5439 5434 5429 5424 5418 5411 5405 5399 5392 5386 5380 5374 5369 5363 5358 5353 5347 5343 5339 5334 5328 5322 5318 5313 5307 5302 5298 5293 5287 5281 5276 5270 5263 5256 5249
5615 5615 5614 5612 5610 5609 5607 5605 5604 5602 5599 5597 5594 5592 5589 5587 5583 5580 5577 5574 5570 5566 5563 5559 5555 5551 5547 5543 5539 5535 5531 5527 5523 5519 5514 5510 5505 5501 5496 5492 5487 5483 5479 5474 5470 5465 5460 5454 5448 5442 5437 5432 5427 5422 5417 5411 5405 5399 5392 5385 5379 5372 5366 5360 5354 5349 5344 5339 5334 5330 5325 5319 5314 5309 5304 5298 5292 5286 5280 5274 5269 5264 5259 5253 5246
5610 5609 5608 5606 5605 5604 5602 5600 5599 5597 5595 5592 5590 5587 5585 5582 5579 5576 5572 5569 5566 5562 5558 5554 5550 5546 5543 5539 5535 5531 5527 5523 5519 5515 5510 5506 5502 5497 5493 5488 5483 5479 5475 5471 5466 5462 5456 5450 5445 5438 5433 5428 5423 5419 5414 5409 5404 5398 5392 5385 5378 5371 5364 5357 5351 5345 5340 5335 5329 5324 5319 5314 5308 5302 5297 5291 5285 5280 5274 5269 5262 5257 5252 5248 5243
5604 5604 5602 5601 5600 5598 5597 5596 5594 5592 5590 5587 5585 5583 5580 5578 5574 5571 5568 5564 5561 5557 5554 5550 5546 5542 5538 5535 5531 5527 5523 5519 5515 5511 5507 5502 5498 5494 5489 5484 5479 5475 5471 5467 5462 5457 5452 5446 5441 5434 5429 5424 5419 5415 5411 5406 5401 5396 5391 5384 5377 5371 5363 5356 5349 5342 5336 5330 5324 5318 5313 5308 5302 5297 5291 5285 5279 5273 5267 5262 5256 5251 5246 5241 5237
5599 5598 5597 5596 5595 5593 5592 5591 5588 5586 5585 5583 5581 5578 5576 5573 5569 5566 5563 5560 5556 5553 5549 5545 5542 5538 5534 5531 5527 5523 5519 5516 5511 5507 5503 5499 5495 5490 5485 5480 5475 5470 5466 5461 5457 5452 5447 5441 5436 5430 5425 5420 5416 5412 5408 5403 5398 5393 5389 5383 5376 5369 5363 5356 5350 5343 5336 5329 5322 5315 5309 5303 5298 5292 5285 5279 5273 5267 5261 5255 5249 5244 5239 5234 5230
5592 5591 5591 5590 5589 5588 5587 5585 5583 5581 5580 5578 5576 5574 5571 5568 5565 5561 5558 5555 5551 5548 5545 5541 5537 5534 5531 5527 5523 5519 5515 5512 5507 5503 5499 5496 5491 5487 5482 5476 5471 5466 5461 5456 5451 5446 5441 5436 5431 5426 5421 5417 5412 5408 5404 5399 5395 5390 5385 5380 5374 5367 5361 5355 5349 5343 5337 5330 5323 5316 5309 5301 5295 5288 5282 5275 5269 5263 5256 5249 5243 5238 5233 5228 5224
5585 5586 5586 5585 5585 5584 5582 5580 5578 5576 5575 5573 5571 5569 5566 5563 5560 5557 5553 5550 5547 5544 5540 5537 5533 5530 5526 5523 5519 5515 5511 5507 5503 5500 5496 5492 5488 5483 5478 5473 5467 5462 5458 5453 5447 5441 5435 5431 5426 5422 5418 5413 5409 5404 5399 5395 5390 5385 5380 5375 5369 5364 5358 5352 5346 5340 5334 5328 5322 5315 5308 5300 5293 5286 5278 5271 5265 5258 5251 5244 5238 5232 5228 5223 5219
5580 5581 5581 5581 5580 5579 5576 5575 5573 5571 5570 5568 5566 5564 5562 5558 5555 5552 5549 5546 5543 5540 5536 5533 5529 5526 5522 5519 5515 5512 5508 5503 5499 5496 5493 5489 5485 5480 5475 5470 5465 5459 5454 5449 5444 5438 5432 5427 5422 5418 5414 5409 5404 5399 5394 5389 5384 5380 5374 5369 5364 5359 5354 5348 5343 5337 5330 5324 5318 5311 5304 5297 5290 5282 5274 5267 5259 5252 5246 5239 5233 5228 5223 5219 5215
5576 5577 5576 5575 5575 5573 5571 5569 5568 5567 5566 5564 5562 5560 5557 5554 5550 5547 5544 5541 5538 5535 5532 5528 5525 5521 5518 5515 5511 5508 5504 5500 5496 5492 5489 5485 5481 5477 5472 5467 5462 5457 5452 5446 5440 5435 5430 5425 5421 5416 5411 5405 5400 5395 5390 5385 5380 5375 5370 5365 5360 5354 5349 5344 5338 5332 5326 5320 5314 5307 5300 5293 5286 5278 5270 5263 5255 5248 5241 5235 5229 5224 5218 5214 5210
5571 5571 5571 5570 5569 5568 5566 5564 5563 5562 5561 5559 5558 5555 5552 5549 5546 5542 5540 5537 5534 5530 5527 5524 5521 5517 5514 5510 5507 5503 5500 5496 5492 5489 5486 5482 5477 5473 5469 5464 5459 5454 5449 5443 5438 5432 5427 5423 5418 5414 5408 5402 5396 5391 5386 5381 5376 5371 5366 5361 5356 5351 5345 5339 5334 5328 5322 5316 5309 5303 5296 5289 5281 5274 5266 5258 5251 5245 5238 5232 5226 5220 5215 5210 5205
5566 5566 5565 5565 5564 5563 5561 5560 5558 5557 5556 5555 5553 5550 5547 5544 5541 5538 5535 5532 5529 5526 5523 5520 5516 5513 5510 5506 5503 5499 5496 5492 5489 5486 5483 5479 5474 5470 5466 5461 5456 5451 5446 5440 5435 5430 5426 5421 5416 5410 5405 5399 5393 5387 5381 5377 5373 5368 5363 5358 5352 5347 5342 5336 5330 5324 5318 5312 5305 5298 5291 5284 5277 5269 5262 5254 5248 5242 5236 5229 5223 5217 5212 5207 5202
5560 5560 5560 5559 5559 5558 5556 5555 5554 5553 5551 5550 5548 5545 5542 5539 5536 5533 5531 5528 5525 5522 5518 5515 5512 5509 5505 5502 5499 5495 5492 5488 5485 5482 5479 5475 5471 5466 5462 5458 5453 5448 5442 5437 5432 5427 5422 5417 5412 5407 5401 5395 5389 5384 5378 5373 5369 5364 5359 5353 5348 5343 5338 5332 5326 5320 5314 5308 5301 5294 5287 5280 5272 5265 5258 5251 5244 5239 5233 5227 5221 5215 5209 5203 5198
5555 5555 5555 5554 5554 5553 5552 5551 5549 5548 5547 5545 5543 5540 5537 5534 5531 5529 5526 5523 5520 5517 5514 5511 5508 5504 5501 5498 5494 5491 5487 5484 5481 5478 5474 5471 5466 5462 5458 5454 5449 5445 5439 5434 5429 5423 5418 5413 5409 5403 5397 5391 5386 5381 5375 5370 5366 5361 5356 5350 5344 5339 5334 5328 5322 5316 5310 5303 5297 5290 5282 5275 5268 5260 5253 5247 5241 5236 5230 5224 5218 5213 5207 5201 5196
5550 5550 5549 5549 5549 5548 5547 5546 5545 5543 5542 5540 5538 5535 5532 5529 5526 5524 5521 5519 5516 5513 5510 5507 5504 5500 5497 5494 5490 5487 5483 5480 5477 5473 5470 5466 5462 5458 5454 5450 5446 5441 5436 5430 5425 5419 5415 5410 5405 5400 5394 5387 5382 5376 5371 5366 5361 5357 5352 5347 5341 5335 5330 5323 5317 5311 5305 5298 5292 5285 5278 5270 5263 5256 5249 5243 5238 5232 5226 5221 5215 5210 5204 5199 5194
5545 5544 5544 5544 5544 5543 5543 5542 5541 5539 5537 5535 5532 5530 5527 5524 5522 5519 5517 5514 5511 5508 5505 5502 5499 5496 5492 5489 5486 5483 5480 5477 5473 5470 5467 5463 5458 5454 5451 5447 5442 5438 5432 5427 5421 5416 5411 5407 5401 5396 5390 5384 5378 5373 5367 5362 5356 5351 5346 5341 5336 5331 5325 5319 5312 5306 5299 5293 5287 5281 5274 5266 5259 5252 5245 5239 5234 5228 5223 5217 5212 5206 5201 5196 5191
5540 5540 5540 5539 5539 5539 5538 5537 5536 5535 5532 5530 5527 5525 5522 5520 5517 5515 5512 5509 5507 5504 5501 5498 5495 5491 5488 5485 5482 5479 5476 5473 5470 5467 5463 5459 5455 5451 5447 5443 5439 5434 5429 5424 5419 5414 5409 5404 5398 5393 5387 5382 5377 5371 5366 5360 5354 5348 5342 5337 5332 5326 5320 5314 5308 5301 5295 5289 5283 5276 5269 5262 5255 5248 5242 5236 5230 5225 5219 5214 5208 5203 5197 5192 5187
5535 5535 5535 5535 5535 5534 5534 5533 5531 5530 5527 5525 5522 5520 5518 5515 5512 5510 5508 5505 5502 5500 5497 5494 5491 5487 5484 5481 5478 5475 5472 5470 5467 5463 5460 5456 5452 5448 5443 5439 5435 5430 5425 5421 5416 5412 5407 5401 5395 5390 5385 5380 5375 5370 5364 5359 5354 5348 5341 5335 5329 5323 5317 5311 5304 5298 5291 5285 5279 5272 5265 5258 5251 5244 5238 5232 5227 5221 5215 5210 5204 5199 5194 5188 5183
5531 5531 5530 5530 5530 5530 5529 5528 5527 5525 5522 5520 5518 5516 5513 5511 5508 5505 5503 5501 5498 5496 5493 5490 5486 5483 5480 5477 5474 5471 5468 5466 5463 5460 5456 5452 5448 5444 5440 5435 5431 5427 5422 5418 5413 5408 5403 5398 5392 5387 5382 5377 5372 5367 5361 5356 5351 5345 5339 5333 5326 5320 5314 5307 5300 5294 5287 5281 5274 5267 5260 5253 5246 5239 5234 5228 5223 5217 5212 5206 5200 5195 5189 5184 5179
5526 5526 5526 5525 5525 5525 5524 5523 5522 5520 5518 5516 5514 5511 5509 5506 5503 5501 5499 5496 5494 5491 5489 5485 5482 5479 5476 5474 5470 5467 5464 5461 5458 5456 5452 5448 5444 5440 5436 5431 5427 5423 5418 5414 5410 5404 5399 5394 5389 5384 5379 5374 5369 5363 5358 5353 5347 5341 5335 5329 5323 5316 5310 5303 5296 5289 5283 5276 5269 5262 5255 5248 5241 5235 5229 5224 5218 5213 5208 5202 5196 5191 5185 5179 5174
5521 5521 5521 5520 5520 5520 5519 5518 5516 5515 5513 5511 5509 5507 5504 5501 5499 5497 5494 5492 5489 5487 5484 5481 5478 5475 5472 5470 5467 5464 5460 5457 5454 5451 5448 5444 5440 5436 5432 5427 5423 5419 5414 5410 5406 5401 5395 5390 5386 5381 5376 5371 5365 5360 5354 5349 5343 5337 5331 5325 5319 5313 5306 5299 5292 5285 5278 5271 5264 5257 5250 5243 5237 5230 5224 5219 5213 5208 5203 5197 5192 5186 5181 5175 5170
5517 5516 5516 5516 5516 5515 5514 5513 5511 5510 5508 5507 5504 5502 5499 5497 5494 5492 5490 5487 5485 5483 5480 5477 5474 5471 5468 5466 5463 5459 5456 5453 5450 5448 5444 5440 5436 5432 5428 5423 5419 5415 5410 5406 5401 5397 5392 5387 5383 5378 5372 5367 5362 5356 5351 5345 5339 5333 5328 5321 5315 5309 5302 5295 5288 5281 5274 5266 5259 5252 5245 5238 5232 5226 5220 5214 5209 5203 5198 5192 5187 5181 5176 5170 5165
5512 5512 5511 5511 5511 5510 5509 5508 5506 5505 5504 5502 5500 5497 5495 5492 5490 5488 5486 5483 5481 5478 5475 5473 5470 5467 5464 5462 5459 5455 5452 5449 5446 5444 5440 5437 5433 5429 5425 5420 5415 5410 5406 5402 5398 5394 5389 5384 5379 5374 5369 5363 5358 5352 5347 5341 5336 5330 5324 5318 5311 5305 5298 5291 5284 5276 5269 5262 5254 5247 5240 5233 5227 5221 5215 5209 5204 5198 5192 5187 5181 5175 5170 5165 5159
5507 5507 5507 5506 5506 5505 5504 5503 5501 5500 5499 5497 5495 5492 5490 5487 5485 5483 5481 5479 5476 5473 5471 5468 5466 5463 5461 5458 5454 5451 5448 5445 5442 5439 5436 5433 5429 5425 5421 5417 5412 5407 5402 5399 5395 5390 5385 5380 5375 5370 5365 5360 5354 5349 5343 5338 5332 5326 5319 5313 5307 5300 5293 5286 5279 5272 5264 5257 5249 5241 5234 5228 5222 5216 5210 5204 5198 5192 5187 5181 5175 5169 5163 5158 5153
5503 5503 5502 5501 5500 5500 5499 5498 5497 5496 5494 5492 5490 5487 5485 5483 5481 5479 5477 5474 5472 5469 5467 5464 5462 5459 5456 5453 5450 5447 5444 5441 5438 5435 5432 5429 5425 5422 5418 5413 5409 5404 5400 5396 5392 5387 5381 5376 5371 5366 5361 5356 5351 5345 5340 5334 5328 5322 5316 5309 5302 5296 5289 5282 5274 5266 5259 5251 5243 5236 5229 5223 5217 5211 5205 5199 5193 5187 5181 5175 5169 5163 5157 5151 5145
5499 5498 5497 5496 5496 5495 5494 5493 5492 5491 5489 5487 5485 5483 5480 5478 5476 5475 5472 5470 5468 5465 5463 5461 5458 5455 5452 5449 5446 5443 5440 5437 5434 5431 5428 5425 5421 5418 5414 5410 5406 5402 5398 5393 5389 5383 5378 5372 5367 5362 5357 5352 5347 5342 5337 5331 5325 5318 5312 5305 5298 5291 5284 5277 5270 5262 5254 5246 5238 5231 5224 5218 5212 5206 5200 5194 5188 5181 5175 5169 5163 5157 5151 5144 5138
5494 5493 5492 5491 5491 5490 5490 5489 5488 5486 5484 5482 5480 5478 5476 5474 5472 5470 5468 5466 5463 5461 5459 5457 5454 5451 5448 5445 5442 5439 5436 5433 5430 5427 5424 5421 5418 5414 5411 5407 5403 5399 5394 5390 5385 5380 5375 5369 5364 5359 5354 5349 5344 5339 5333 5327 5321 5315 5308 5301 5295 5287 5280 5273 5265 5257 5249 5241 5233 5225 5219 5212 5206 5200 5194 5188 5182 5175 5169 5162 5156 5150 5144 5137 5130
5489 5488 5487 5487 5486 5486 5485 5484 5483 5481 5480 5478 5476 5473 5471 5470 5468 5466 5464 5461 5459 5457 5455 5452 5449 5447 5444 5441 5438 5435 5432 5429 5426 5423 5420 5417 5414 5411 5407 5404 5399 5395 5390 5386 5381 5376 5371 5366 5361 5356 5351 5346 5341 5335 5330 5324 5317 5311 5304 5297 5291 5283 5276 5268 5260 5252 5244 5235 5227 5220 5213 5207 5201 5195 5188 5182 5175 5169 5162 5155 5149 5142 5136 5129 5123
5483 5483 5483 5482 5482 5481 5481 5480 5478 5477 5475 5473 5471 5469 5467 5465 5464 5461 5459 5457 5455 5453 5451 5448 5445 5442 5440 5437 5434 5431 5428 5426 5423 5420 5416 5413 5410 5407 5404 5400 5395 5391 5387 5382 5377 5373 5368 5363 5357 5352 5347 5342 5337 5332 5326 5320 5314 5307 5300 5293 5286 5279 5271 5264 5256 5247 5239 5230 5222 5214 5208 5201 5195 5189 5183 5176 5169 5162 5155 5148 5141 5134 5128 5121 5116
5479 5479 5479 5478 5478 5477 5476 5475 5474 5472 5471 5468 5466 5465 5463 5461 5459 5457 5455 5453 5451 5449 5446 5444 5441 5438 5436 5433 5431 5428 5425 5422 5419 5416 5413 5410 5407 5403 5400 5396 5392 5387 5383 5379 5374 5370 5365 5360 5354 5349 5344 5339 5333 5328 5322 5316 5310 5303 5297 5290 5282 5275 5267 5259 5251 5242 5234 5225 5217 5209 5202 5196 5189 5183 5176 5169 5162 5155 5148 5140 5133 5126 5120 5114 5108
5474 5474 5474 5474 5473 5472 5472 5471 5469 5468 5466 5464 5462 5461 5459 5457 5455 5453 5451 5449 5447 5445 5442 5439 5437 5434 5432 5429 5427 5424 5421 5418 5415 5412 5409 5406 5403 5400 5396 5392 5388 5384 5379 5375 5370 5366 5362 5356 5351 5345 5340 5335 5330 5324 5318 5312 5306 5300 5293 5286 5278 5271 5263 5255 5246 5238 5229 5221 5213 5205 5197 5191 5184 5177 5170 5163 5155 5148 5140 5133 5125 5118 5112 5107 5102
5469 5469 5469 5469 5469 5468 5467 5466 5464 5463 5461 5460 5458 5457 5455 5453 5451 5449 5447 5445 5443 5440 5438 5435 5433 5430 5428 5426 5423 5421 5418 5415 5412 5409 5406 5403 5400 5396 5392 5389 5384 5380 5376 5371 5367 5363 5358 5353 5348 5342 5337 5331 5326 5320 5314 5308 5302 5295 5289 5282 5274 5266 5258 5250 5241 5233 5224 5216 5208 5200 5193 5185 5178 5170 5163 5156 5148 5140 5132 5125 5118 5111 5106 5100 5096
5465 5465 5465 5465 5464 5463 5462 5461 5460 5458 5457 5455 5454 5453 5451 5449 5447 5445 5443 5441 5439 5436 5434 5431 5429 5427 5424 5422 5420 5417 5414 5411 5408 5405 5403 5400 5396 5393 5389 5385 5381 5377 5372 5368 5363 5359 5355 5350 5345 5339 5334 5328 5323 5317 5311 5304 5297 5291 5284 5276 5269 5261 5253 5245 5236 5227 5219 5211 5203 5195 5188 5180 5172 5164 5156 5148 5140 5132 5125 5117 5111 5105 5100 5095 5091
5460 5460 5460 5460 5460 5459 5458 5457 5455 5454 5453 5451 5450 5449 5447 5445 5444 5442 5440 5437 5435 5432 5430 5427 5425 5423 5421 5418 5416 5413 5411 5408 5405 5402 5399 5396 5393 5390 5386 5382 5378 5373 5369 5364 5360 5356 5351 5346 5342 5337 5331 5325 5319 5313 5307 5300 5293 5286 5279 5271 5264 5256 5248 5239 5231 5222 5213 5205 5197 5190 5182 5174 5165 5157 5148 5140 5132 5124 5117 5110 5104 5099 5094 5090 5087
5456 5456 5456 5456 5455 5454 5453 5452 5451 5450 5449 5447 5446 5444 5443 5441 5440 5438 5436 5433 5431 5428 5425 5423 5421 5419 5417 5415 5412 5410 5407 5404 5402 5399 5396 5393 5390 5386 5383 5379 5374 5370 5365 5361 5357 5353 5348 5343 5339 5334 5328 5323 5316 5310 5303 5296 5289 5282 5275 5267 5259 5251 5242 5234 5225 5217 5208 5200 5192 5184 5176 5167 5158 5150 5141 5132 5125 5117 5110 5104 5098 5094 5090 5087 5084
5451 5452 5452 5452 5451 5450 5449 5447 5446 5446 5445 5443 5442 5440 5439 5437 5436 5434 5431 5429 5426 5424 5422 5420 5418 5416 5413 5411 5409 5406 5404 5401 5398 5396 5393 5390 5387 5383 5379 5375 5371 5367 5362 5358 5354 5349 5345 5341 5336 5331 5326 5320 5314 5307 5300 5293 5286 5278 5271 5263 5254 5245 5237 5228 5219 5211 5203 5195 5187 5178 5169 5160 5151 5142 5133 5125 5117 5110 5104 5098 5093 5089 5086 5084 5082
5447 5447 5448 5447 5446 5445 5444 5443 5442 5441 5440 5439 5438 5436 5435 5434 5432 5430 5427 5425 5422 5420 5418 5416 5414 5412 5410 5407 5405 5403 5400 5398 5395 5392 5389 5386 5383 5380 5376 5372 5368 5364 5359 5355 5351 5347 5342 5338 5333 5328 5323 5317 5311 5304 5297 5290 5282 5275 5267 5259 5250 5241 5232 5223 5214 5206 5198 5190 5181 5172 5163 5153 5144 5135 5126 5118 5111 5104 5098 5094 5090 5087 5084 5083 5081
5443 5443 5443 5442 5442 5441 5440 5439 5438 5437 5436 5435 5434 5432 5431 5430 5428 5425 5423 5421 5419 5417 5415 5413 5411 5409 5406 5404 5401 5399 5397 5394 5392 5389 5386 5383 5380 5376 5373 5369 5365 5361 5356 5352 5348 5344 5340 5335 5330 5325 5320 5314 5308 5301 5294 5287 5279 5272 5264 5255 5247 5238 5228 5219 5210 5201 5192 5184 5175 5166 5156 5146 5137 5128 5120 5112 5105 5099 5095 5091 5087 5085 5083 5082 5082
5439 5439 5439 5438 5437 5436 5436 5435 5434 5433 5432 5431 5430 5428 5427 5426 5423 5421 5419 5417 5415 5413 5411 5409 5407 5405 5403 5400 5398 5396 5393 5391 5388 5386 5383 5380 5377 5373 5369 5366 5362 5358 5354 5349 5345 5341 5337 5332 5328 5323 5317 5311 5305 5298 5291 5283 5276 5268 5260 5251 5243 5234 5224 5215 5206 5196 5187 5178 5169 5160 5150 5140 5131 5122 5114 5107 5101 5096 5092 5089 5086 5084 5083 5083 5083